Content
SEND FEEDBACK

Daily
Averages
Monthly
Summary
United States of America

SULPHUR, LOUISIANA


Home > North America > United States > Louisiana
Elevation: 10 feet     Latitude: 30 13N     Longitude: 093 23W

WEATHER
 
SELECT A DAY
Number of Records: 188,188;   Date Range: 11/22/06 - 9/18/14
 
SHARE

PRINT THIS DATA

[ ← Previous Day ]
WEATHER ALMANAC - NOVEMBER 13, 2013
[ Next Day → ]
[ °C ]   °F
Weather ElementAverageHighLow
Temperature45.2 °F58.1 °F (2:35 pm)35.1 °F (6:35 am)
Dewpoint27.7 °F32 °F (10:35 pm)22.6 °F (2:15 pm)
Humidity53 %73 % (6:35 am)26 % (2:15 pm)
Barometer30.51 in30.60 in (7:35 am)30.43 in (11:15 pm)
Wind Speed9.2 mph15 mph (2:55 am)
Wind Gust24.2 mph (12:55 am)
Weather ElementAverage
Visibility10 mi
Wind DirectionESE (105.5 °)

Weather ElementTotal
Precipitation---
Heating Degree Days18.4 (Base 65)
Averaged from 71 records on November 13, 2013
WEATHER CONDITIONS BREAKOUT
WIND DIRECTION BREAKOUT
WEATHER BY HOUR - NOVEMBER 13, 2013
[ °C ]   °F
Local TimeTemperatureDewpointHumidityBarometerVisibilityWind DirectionWind SpeedGust SpeedPrecipitationEventsConditions
12:35 AM41.2 °F29.5 °F63 %30.57 in10.0 miNNE (20°)10.4 mph20.7 mphClear
12:55 AM41.0 °F29.3 °F63 %30.56 in10.0 miNorth (10°)12.7 mph24.2 mphClear
1:15 AM40.3 °F29.3 °F65 %30.56 in10.0 miNorth (10°)11.5 mph21.9 mphClear
1:35 AM39.9 °F29.3 °F66 %30.56 in10.0 miNorth (10°)12.7 mph19.6 mphClear
1:55 AM39.4 °F29.3 °F67 %30.56 in10.0 miNorth (10°)12.7 mph19.6 mphClear
2:15 AM39.2 °F28.9 °F67 %30.55 in10.0 miNorth (10°)13.8 mph23.0 mphClear
2:35 AM38.8 °F28.4 °F66 %30.56 in10.0 miNNE (20°)11.5 mph18.4 mphClear
2:55 AM38.3 °F28.2 °F67 %30.56 in10.0 miNorth (10°)15.0 mph19.6 mphClear
3:15 AM38.1 °F28.2 °F68 %30.56 in10.0 miNorth (360°)15.0 mph19.6 mphClear
3:35 AM38.1 °F28.2 °F68 %30.57 in10.0 miNorth (10°)13.8 mph20.7 mphClear
3:55 AM37.6 °F28.2 °F69 %30.57 in10.0 miNorth (10°)12.7 mph18.4 mphClear
4:15 AM37.0 °F28.4 °F71 %30.58 in10.0 miNorth (350°)6.9 mph17.3 mphClear
4:35 AM36.9 °F28.4 °F71 %30.58 in10.0 miNorth (360°)10.4 mph18.4 mphClear
4:55 AM36.5 °F28.4 °F72 %30.58 in10.0 miNorth (10°)12.7 mph16.1 mphClear
5:15 AM36.3 °F28.2 °F72 %30.58 in10.0 miNorth (10°)11.5 mphClear
5:35 AM36.0 °F27.9 °F72 %30.58 in10.0 miNorth (10°)11.5 mphClear
5:55 AM35.8 °F27.5 °F72 %30.58 in10.0 miNorth (10°)12.7 mph18.4 mphClear
6:15 AM35.6 °F27.3 °F72 %30.58 in10.0 miNorth (360°)9.2 mph19.6 mphClear
6:35 AM35.1 °F27.3 °F73 %30.58 in10.0 miNorth (360°)10.4 mph18.4 mphClear
6:55 AM35.2 °F27.3 °F73 %30.59 in10.0 miNorth (10°)10.4 mph19.6 mphClear
7:15 AM35.6 °F27.3 °F72 %30.59 in10.0 miNorth (10°)9.2 mph18.4 mphClear
7:35 AM36.1 °F27.3 °F70 %30.60 in10.0 miNorth (10°)10.4 mph19.6 mphClear
7:55 AM37.0 °F27.1 °F67 %30.60 in10.0 miNorth (10°)10.4 mph18.4 mphClear
8:15 AM37.9 °F27.1 °F65 %30.60 in10.0 miNorth (10°)12.7 mph18.4 mphClear
8:35 AM39.9 °F27.5 °F61 %30.60 in10.0 miNorth (10°)12.7 mph16.1 mphClear
8:55 AM41.0 °F27.0 °F57 %30.59 in10.0 miNorth (360°)12.7 mph16.1 mphClear
9:15 AM42.4 °F26.8 °F54 %30.59 in10.0 miNorth (360°)11.5 mph16.1 mphClear
9:35 AM43.9 °F26.4 °F50 %30.59 in10.0 miNorth (10°)12.7 mphClear
9:55 AM44.8 °F25.5 °F47 %30.58 in10.0 miNorth (360°)10.4 mph17.3 mphClear
10:15 AM45.7 °F24.3 °F43 %30.58 in10.0 miNNE (20°)11.5 mph17.3 mphClear
10:35 AM47.7 °F25.0 °F41 %30.58 in10.0 miNorth (350°)9.2 mphClear
10:55 AM48.7 °F25.0 °F40 %30.58 in10.0 miNorth (350°)9.2 mphClear
11:15 AM50.2 °F24.6 °F37 %30.56 in10.0 miNNE (30°)10.4 mph16.1 mphClear
11:35 AM51.6 °F24.8 °F35 %30.55 in10.0 miNorth (360°)11.5 mphClear
11:55 AM52.5 °F24.4 °F34 %30.53 in10.0 miNorth (360°)9.2 mph19.6 mphClear
12:15 PM54.1 °F25.3 °F33 %30.51 in10.0 miNorth (360°)10.4 mph18.4 mphClear
12:35 PM54.1 °F24.4 °F32 %30.49 in10.0 miNorth (350°)11.5 mph16.1 mphClear
12:55 PM54.5 °F24.3 °F31 %30.48 in10.0 miNorth (360°)11.5 mph19.6 mphClear
1:15 PM54.5 °F24.6 °F31 %30.47 in10.0 miNorth (360°)11.5 mph19.6 mphClear
1:35 PM56.5 °F24.4 °F29 %30.47 in10.0 miNorth (10°)11.5 mphClear
1:55 PM57.0 °F24.4 °F29 %30.46 in10.0 miNNW (340°)11.5 mphClear
2:15 PM57.9 °F22.6 °F26 %30.46 in10.0 miNNE (20°)8.1 mph16.1 mphClear
2:35 PM58.1 °F25.2 °F28 %30.45 in10.0 miNorth (360°)8.1 mphClear
2:55 PM57.7 °F23.5 °F27 %30.45 in10.0 miNNE (20°)11.5 mph17.3 mphClear
3:15 PM57.0 °F23.7 °F28 %30.45 in10.0 miNNE (20°)9.2 mphClear
3:35 PM57.4 °F25.0 °F29 %30.45 in10.0 miNNE (20°)9.2 mph16.1 mphClear
3:55 PM56.1 °F25.5 °F31 %30.44 in10.0 miNorth (10°)11.5 mphClear
4:15 PM55.8 °F24.8 °F30 %30.45 in10.0 miNNE (20°)8.1 mphClear
4:35 PM54.3 °F26.6 °F34 %30.45 in10.0 miNNE (20°)8.1 mphClear
4:55 PM52.9 °F26.8 °F36 %30.45 in10.0 miNNE (20°)5.8 mphClear
5:15 PM50.9 °F28.4 °F42 %30.45 in10.0 miNNE (30°)3.5 mphClear
5:35 PM50.0 °F28.8 °F44 %30.45 in10.0 miNNE (30°)3.5 mphClear
5:55 PM49.1 °F29.3 °F46 %30.46 in10.0 miNNE (20°)4.6 mphClear
6:15 PM47.8 °F30.4 °F51 %30.46 in10.0 miNNE (20°)3.5 mphClear
6:35 PM46.6 °F30.7 °F54 %30.46 in10.0 miNorth (10°)4.6 mphClear
6:55 PM48.4 °F29.3 °F48 %30.45 in10.0 miNorth (10°)8.1 mphClear
7:15 PM47.7 °F30.2 °F51 %30.46 in10.0 miNorth (10°)6.9 mphClear
7:35 PM47.3 °F29.8 °F51 %30.46 in10.0 miNorth (10°)5.8 mphClear
7:55 PM45.7 °F30.6 °F56 %30.46 in10.0 miENE (60°)3.5 mphClear
8:15 PM45.1 °F30.2 °F56 %30.46 in10.0 miNorth (10°)5.8 mphClear
8:35 PM45.1 °F30.2 °F56 %30.46 in10.0 miNorth (10°)4.6 mphClear
8:55 PM44.2 °F30.7 °F59 %30.46 in10.0 miNNE (20°)4.6 mphClear
9:15 PM43.3 °F31.1 °F62 %30.45 in10.0 miNNE (20°)4.6 mphClear
9:35 PM43.2 °F31.1 °F62 %30.45 in10.0 miNNE (30°)3.5 mphClear
9:55 PM44.2 °F30.4 °F58 %30.45 in10.0 miNE (40°)3.5 mphClear
10:15 PM44.8 °F31.6 °F60 %30.44 in10.0 miNE (50°)4.6 mphClear
10:35 PM44.2 °F32.0 °F62 %30.44 in10.0 miNE (50°)4.6 mphClear
10:55 PM44.6 °F31.5 °F60 %30.44 in10.0 miNE (50°)8.1 mphClear
11:15 PM43.9 °F31.5 °F62 %30.43 in10.0 miNE (50°)5.8 mphClear
11:35 PM43.5 °F31.1 °F62 %30.43 in10.0 miNE (50°)4.6 mphClear
11:55 PM43.9 °F30.2 °F59 %30.43 in10.0 miNE (50°)9.2 mphClear
Hourly data recorded from KUXL, located miles away from Sulphur, Louisiana







STORIES FROM OUR PARTNERS